This is the latest recevied weather packets stored in our database for station/object SV9TNF-51. If no packets are shown the sender has not sent any weather packets the latest 10 day(s).
| Time | Temp. | Humidity | Pressure | Rain* | Wind** | Luminosity | Snow |
|---|---|---|---|---|---|---|---|
| 1788106944 | 30° C | 43% | 1011.9 hPa | 0 mm | 0 m/s | - | - |
| 1788106644 | 30.56° C | 43% | 1011.9 hPa | 0 mm | 2.68 m/s, 122° | - | - |
| 1788106344 | 31.11° C | 41% | 1011.9 hPa | 0 mm | 0 m/s | - | - |
| 1788106044 | 31.67° C | 43% | 1011.9 hPa | 0 mm | 0 m/s | - | - |
| 1788105744 | 31.67° C | 43% | 1011.9 hPa | 0 mm | 0 m/s | - | - |
| 1788105443 | 31.67° C | 43% | 1012.2 hPa | 0 mm | 0.45 m/s, 124° | - | - |
| 1788105143 | 31.67° C | 42% | 1012.2 hPa | 0 mm | 1.34 m/s, 121° | - | - |
| 1788104843 | 31.67° C | 41% | 1012.2 hPa | 0 mm | 1.34 m/s, 128° | - | - |
| 1788104543 | 32.22° C | 40% | 1012.2 hPa | 0 mm | 0.89 m/s, 126° | - | - |
| 1788104243 | 31.67° C | 40% | 1012.2 hPa | 0 mm | 0.45 m/s, 125° | - | - |
| 1788103943 | 31.11° C | 42% | 1012.2 hPa | 0 mm | 1.34 m/s, 124° | - | - |
| 1788103643 | 31.11° C | 45% | 1012.2 hPa | 0 mm | 4.47 m/s, 156° | - | - |
| 1788103343 | 31.67° C | 43% | 1012.2 hPa | 0 mm | 1.34 m/s, 102° | - | - |
| 1788103043 | 31.67° C | 41% | 1012.2 hPa | 0 mm | 1.34 m/s, 121° | - | - |
| 1788102743 | 32.78° C | 40% | 1012.2 hPa | 0 mm | 0.89 m/s, 131° | - | - |
| 1788102443 | 32.78° C | 39% | 1012.2 hPa | 0 mm | 1.34 m/s, 129° | - | - |
| 1788102143 | 33.33° C | 38% | 1012.2 hPa | 0 mm | 0.89 m/s, 130° | - | - |
| 1788101842 | 33.33° C | 39% | 1012.2 hPa | 0 mm | 1.34 m/s, 221° | - | - |
| 1788101542 | 33.89° C | 39% | 1012.2 hPa | 0 mm | 0.45 m/s, 116° | - | - |
| 1788101242 | 34.44° C | 38% | 1012.2 hPa | 0 mm | 0.45 m/s, 128° | - | - |
| 1788100942 | 34.44° C | 35% | 1012.2 hPa | 0 mm | 1.34 m/s, 127° | - | - |
| 1788100642 | 34.44° C | 36% | 1012.2 hPa | 0 mm | 0.89 m/s, 139° | - | - |
| 1788100342 | 34.44° C | 35% | 1012.2 hPa | 0 mm | 3.13 m/s, 120° | - | - |
| 1788100041 | 34.44° C | 34% | 1012.2 hPa | 0 mm | 0 m/s | - | - |
| 1788099741 | 33.89° C | 36% | 1012.2 hPa | 0 mm | 2.68 m/s, 114° | - | - |
* Rain latest hour (hover to see other rain measurements)
** Current wind speed in m/s (hover to see current wind gust speed)